"2009-10-13 00:00:00",1322206,2.45,39.6,6.432,1.059,5.181,102.0013,4.406,5.646,67.38,0,110,13.42,5.17,1.6
"2009-10-13 00:00:30",1322207,2.962,47.1,10.39,1.243,6.239,101.9993,4.401,5.722,67.53,0,110,13.42,5.17,9.1
"2009-10-13 00:01:00",1322208,2.225,51.57,6.809,1.11,5.058,101.9889,4.375,5.647,67.39,0,110,13.42,5.14,13.6
"2009-10-13 00:01:30",1322209,3.645,56.95,5.532,1.09,6.333,101.9685,4.323,5.573,66.73,0,110,13.42,5.09,19.0
"2009-10-13 00:02:00",1322210,3.801,53.56,7.621,1.553,5.947,101.9646,4.313,5.676,66.78,0,109.9,13.42,5.08,15.6
"2009-10-13 00:02:30",1322211,5.032,62.36,8.11,1.389,6.99,101.9423,4.256,5.669,67.64,0,110,13.42,5.02,24.4
"2009-10-13 00:03:00",1322212,6.087,65.49,6.668,1.178,7.075,101.9364,4.241,5.623,68.43,0,110,13.42,5.01,27.5
"2009-10-13 00:03:30",1322213,4.951,61.37,7.734,1.426,5.847,101.9297,4.224,5.556,68.84,0,110,13.43,4.99,23.4
"2009-10-13 00:04:00",1322214,5.493,69.74,9.41,1.249,7.65,101.9095,4.172,5.594,69.14,0,109.9,13.42,4.94,31.7
"2009-10-13 00:04:30",1322215,4.943,60.07,7.998,1.017,5.939,101.8968,4.14,5.451,69.24,0,109.9,13.43,4.91,22.1
"2009-10-13 00:05:00",1322216,5.427,57.91,6.342,1.188,6.892,101.8842,4.108,5.435,69.44,0,109.9,13.43,4.87,19.9
"2009-10-13 00:05:30",1322217,5.172,62.37,6.985,1.283,6.905,101.8608,4.048,5.488,69.7,0,109.9,13.43,4.81,24.4
"2009-10-13 00:06:00",1322218,5.402,60.24,6.249,1.046,7.399,101.8493,4.018,5.402,69.85,0,109.9,13.43,4.78,22.2
"2009-10-13 00:06:30",1322219,4.396,55.85,8.35,1.428,5.286,101.8285,3.965,5.327,70.03,0,109.9,13.43,4.73,17.8
"2009-10-13 00:07:00",1322220,5.358,66.98,7.232,1.333,7.391,101.8104,3.919,5.375,70.33,0,109.9,13.43,4.68,29.0
"2009-10-13 00:07:30",1322221,4.427,66.05,7.401,1.282,7.02,101.7935,3.876,5.291,70.46,0,109.9,13.43,4.64,28.1
"2009-10-13 00:08:00",1322222,3.974,60.69,9.86,1.184,5.486,101.7661,3.806,5.121,70.55,0,109.9,13.44,4.57,22.7
"2009-10-13 00:08:30",1322223,5.665,72.74,8.33,1.248,7.004,101.761,3.793,5.21,70.88,0,109.9,13.44,4.56,34.7
"2009-10-13 00:09:00",1322224,5.68,71.21,9.05,1.27,6.956,101.7311,3.717,5.155,71.03,0,109.9,13.44,4.48,33.2
"2009-10-13 00:09:30",1322225,5.452,77.21,9.96,1.167,7.314,101.7161,3.678,5.04,71.09,0,109.9,13.44,4.44,39.2
"2009-10-13 00:10:00",1322226,6.158,89.2,11.43,1.456,6.915,101.6949,3.624,5.087,71.33,0,109.9,13.44,4.39,51.2
"2009-10-13 00:10:30",1322227,7.48,96,6.519,1.236,6.441,101.6709,3.563,5.027,71.27,0,109.9,13.44,4.33,58.0
"2009-10-13 00:11:00",1322228,6.614,91.5,6.981,1.192,6.393,101.6489,3.507,4.954,71.12,0,109.9,13.44,4.27,53.5
"2009-10-13 00:11:30",1322229,7.167,94,5.817,1.217,6.533,101.6249,3.445,4.91,71.21,0,109.9,13.44,4.21,56.0
"2009-10-13 00:12:00",1322230,7.096,96.4,7.219,1.162,6.934,101.5944,3.368,4.897,71.31,0,109.9,13.44,4.13,58.4
"2009-10-13 00:12:30",1322231,7.188,92.3,6.039,1.095,7.371,101.5701,3.306,4.801,71.43,0,109.9,13.44,4.07,54.3
"2009-10-13 00:13:00",1322232,6.657,94.7,8.36,1.18,6.727,101.5512,3.257,4.751,71.71,0,109.9,13.44,4.02,56.7
"2009-10-13 00:13:30",1322233,6.051,90.3,8.23,1.262,5.801,101.5315,3.207,4.718,72.02,0,109.9,13.44,3.97,52.3
"2009-10-13 00:14:00",1322234,6.343,91.4,8.27,1.172,6.018,101.5041,3.137,4.602,72.16,0,109.9,13.44,3.90,53.4
"2009-10-13 00:14:30",1322235,6.504,102.1,6.627,1.258,6.71,101.4903,3.102,4.577,72.37,0,109.9,13.44,3.86,64.1
"2009-10-13 00:15:00",1322236,7.056,99.1,8.34,1.123,7.572,101.4703,3.051,4.609,72.62,0,109.9,13.44,3.81,61.1
"2009-10-13 00:15:30",1322237,7.411,105,5.392,1.121,6.879,101.4492,2.997,4.531,72.74,0,109.9,13.44,3.76,67.0
"2009-10-13 00:16:00",1322238,7.441,106.7,6.679,1.05,6.891,101.4306,2.95,4.417,72.7,0,109.8,13.44,3.71,68.7
"2009-10-13 00:16:30",1322239,7.118,107.6,5.272,1.29,6.834,101.4104,2.898,4.409,72.85,0,109.8,13.45,3.66,69.6
"2009-10-13 00:17:00",1322240,7.268,109.3,4.765,1.102,6.878,101.3883,2.842,4.363,73.03,0,109.9,13.45,3.60,71.3
"2009-10-13 00:17:30",1322241,7.676,110.2,4.87,1.228,6.663,101.3606,2.771,4.301,73.17,0,109.8,13.45,3.53,72.2
"2009-10-13 00:18:00",1322242,7.874,105.4,6.227,1.128,6.609,101.3366,2.71,4.166,73.25,0,109.8,13.45,3.47,67.4
"2009-10-13 00:18:30",1322243,7.698,106.4,6.158,1.161,6.786,101.3171,2.66,4.208,73.46,0,109.8,13.45,3.42,68.4
"2009-10-13 00:19:00",1322244,7.972,107.7,4.81,0.981,7.016,101.2897,2.59,4.124,73.6,0,109.8,13.45,3.35,69.7
"2009-10-13 00:19:30",1322245,7.908,106.5,5.057,0.945,7.182,101.2631,2.522,4.15,73.92,0,109.8,13.45,3.28,68.5
"2009-10-13 00:20:00",1322246,8.11,108.7,4.177,0.726,7.554,101.247,2.481,4.065,74.1,0,109.8,13.45,3.24,70.7
"2009-10-13 00:20:30",1322247,7.895,103.1,5.921,0.89,6.675,101.2207,2.414,3.93,74.25,0,109.8,13.45,3.17,65.1
"2009-10-13 00:21:00",1322248,6.838,101.5,6.337,1.321,5.774,101.195,2.348,3.929,74.57,0,109.8,13.46,3.11,63.5
"2009-10-13 00:21:30",1322249,6.826,98.2,6.762,1.157,4.719,101.182,2.315,3.67,74.62,0,109.8,13.46,3.08,60.2
"2009-10-13 00:22:00",1322250,7.489,104.5,7.166,1.102,6.587,101.1532,2.242,3.808,75.07,0,109.8,13.46,3.00,66.5
"2009-10-13 00:22:30",1322251,7.264,105.5,6.252,1.132,6.417,101.1365,2.199,3.742,75.32,0,109.8,13.46,2.96,67.5
"2009-10-13 00:23:00",1322252,7.883,111.3,4.556,0.927,7.036,101.1185,2.153,3.767,75.63,0,109.8,13.46,2.91,73.3
"2009-10-13 00:23:30",1322253,7.966,112.1,4.178,0.854,7.309,101.091,2.083,3.714,75.82,0,109.8,13.47,2.84,74.1
"2009-10-13 00:24:00",1322254,8.11,115.1,3.788,0.657,7.6,101.0857,2.069,3.68,75.96,0,109.8,13.47,2.83,77.1
"2009-10-13 00:24:30",1322255,7.579,114.6,6.772,1.17,6.571,101.0676,2.023,3.592,76.06,0,109.8,13.47,2.78,76.6
"2009-10-13 00:25:00",1322256,7.078,110.8,5.907,1.16,5.688,101.0586,2,3.501,76.16,0,109.8,13.47,2.76,72.8
"2009-10-13 00:25:30",1322257,6.82,113.1,6.757,1.184,5.298,101.0578,1.998,3.41,76.26,0,109.8,13.47,2.76,75.1
"2009-10-13 00:26:00",1322258,7.539,117.5,5.748,1.091,6.463,101.0441,1.963,3.499,76.57,0,109.8,13.47,2.72,79.5
"2009-10-13 00:26:30",1322259,7.399,118.8,5.408,1.076,6.466,101.0436,1.962,3.463,76.78,0,109.8,13.47,2.72,80.8
"2009-10-13 00:27:00",1322260,7.366,121.5,4.818,1.055,7.292,101.0295,1.926,3.415,76.99,0,109.8,13.47,2.68,83.5
"2009-10-13 00:27:30",1322261,7.649,122.5,3.976,0.917,7.054,101.0162,1.892,3.376,77.21,0,109.8,13.47,2.65,84.5
"2009-10-13 00:28:00",1322262,7.768,122.6,3.617,0.614,7.297,101.0162,1.892,3.387,77.44,0,109.8,13.47,2.65,84.6
"2009-10-13 00:28:30",1322263,7.613,124.1,2.988,0.774,7.06,101.0035,1.86,3.369,77.65,0,109.7,13.47,2.62,86.1
"2009-10-13 00:29:00",1322264,7.64,123.1,2.267,0.842,6.751,100.9865,1.816,3.313,77.82,0,109.7,13.47,2.57,85.1
"2009-10-13 00:29:30",1322265,7.682,122.2,3.997,0.639,6.684,100.9837,1.809,3.288,77.96,0,109.7,13.46,2.57,84.2
"2009-10-13 00:30:00",1322266,6.158,114.1,5.922,1.238,3.822,100.9758,1.789,3.006,77.82,0,109.7,13.47,2.55,76.1
"2009-10-13 00:30:30",1322267,5.29,109.1,0.859,0.098,2.467,100.9512,1.726,3.013,78,0,109.7,13.5,2.48,71.1
"2009-10-13 00:31:00",1322268,6.688,115.5,6.534,1.143,5.698,100.9498,1.723,3.007,78.16,0,109.7,13.47,2.48,77.5
"2009-10-13 00:31:30",1322269,7.53,116.5,3.808,0.494,7.778,100.9495,1.722,3.191,78.51,0,109.7,13.47,2.48,78.5
"2009-10-13 00:32:00",1322270,7.39,115.3,1.927,0.755,7.912,100.9376,1.692,3.185,78.65,0,109.7,13.47,2.45,77.3
"2009-10-13 00:32:30",1322271,7.286,110.9,4.802,0.566,7.789,100.9167,1.638,3.139,78.78,0,109.7,13.47,2.40,72.9
"2009-10-13 00:33:00",1322272,6.977,109.7,3.626,0.794,6.963,100.9159,1.636,3.116,78.89,0,109.7,13.48,2.39,71.7
"2009-10-13 00:33:30",1322273,6.904,102.6,6.296,1,6.036,100.9116,1.625,3.103,78.98,0,109.7,13.48,2.38,64.6
"2009-10-13 00:34:00",1322274,6.176,99.3,7.568,1.259,4.782,100.8859,1.56,2.985,79.04,0,109.7,13.48,2.32,61.3
"2009-10-13 00:34:30",1322275,5.008,93.5,4.854,0.556,2.837,100.8831,1.553,2.807,79,0,109.7,13.48,2.31,55.5
"2009-10-13 00:35:00",1322276,6.757,101.1,4.751,1.151,5.709,100.8803,1.545,2.967,79.32,0,109.7,13.48,2.30,63.1
"2009-10-13 00:35:30",1322277,7.093,107.8,4.287,0.7,7.081,100.86,1.494,2.973,79.47,0,109.7,13.48,2.25,69.8
"2009-10-13 00:36:00",1322278,6.785,109.9,2.825,0.85,7.136,100.8586,1.49,2.995,79.64,0,109.7,13.49,2.25,71.9
"2009-10-13 00:36:30",1322279,6.375,106.4,6.237,1.109,6.055,100.8521,1.473,2.908,79.71,0,109.7,13.49,2.23,68.4
"2009-10-13 00:37:00",1322280,6.126,105.5,5.615,1.16,5.886,100.8281,1.412,2.863,79.81,0,109.7,13.49,2.17,67.5
"2009-10-13 00:37:30",1322281,6.318,103.5,6.569,1.112,5.809,100.8332,1.425,2.757,79.82,0,109.7,13.49,2.18,65.5
"2009-10-13 00:38:00",1322282,6.297,102.7,5.851,1.152,5.677,100.8267,1.409,2.79,80,0,109.7,13.49,2.17,64.7
"2009-10-13 00:38:30",1322283,6.352,99.5,6.61,1.166,5.448,100.8086,1.363,2.725,80.1,0,109.7,13.49,2.12,61.5
"2009-10-13 00:39:00",1322284,6.878,101.3,5.526,1.07,5.968,100.807,1.358,2.825,80.3,0,109.7,13.5,2.12,63.3
"2009-10-13 00:39:30",1322285,7.131,100.4,4.828,1.088,5.842,100.8013,1.344,2.669,80.3,0,109.7,13.5,2.10,62.4
"2009-10-13 00:40:00",1322286,6.903,101.2,6.161,1.168,6.068,100.7796,1.288,2.765,80.5,0,109.7,13.5,2.05,63.2
"2009-10-13 00:40:30",1322287,7.492,104.1,3.858,0.667,6.806,100.7799,1.289,2.66,80.6,0,109.7,13.5,2.05,66.1
"2009-10-13 00:41:00",1322288,6.75,99.3,6.226,1.265,5.015,100.7762,1.28,2.658,80.7,0,109.7,13.5,2.04,61.3
"2009-10-13 00:41:30",1322289,7.018,104.3,5.291,0.986,6.058,100.7539,1.223,2.572,80.7,0,109.6,13.5,1.98,66.3
"2009-10-13 00:42:00",1322290,6.578,103,5.95,1.155,5.655,100.7465,1.204,2.637,81,0,109.7,13.5,1.96,65.0
"2009-10-13 00:42:30",1322291,6.633,104.2,6.124,0.987,6.176,100.7465,1.204,2.589,81,0,109.7,13.5,1.96,66.2
"2009-10-13 00:43:00",1322292,6.53,105.7,5.272,1.092,6.338,100.7332,1.17,2.517,81.1,0,109.7,13.5,1.93,67.7
"2009-10-13 00:43:30",1322293,6.508,108.9,4.402,0.938,6.985,100.7126,1.118,2.587,81.3,0,109.7,13.5,1.87,70.9
"2009-10-13 00:44:00",1322294,5.81,107.6,5.995,1.132,5.935,100.7126,1.118,2.532,81.4,0,109.7,13.5,1.87,69.6
"2009-10-13 00:44:30",1322295,5.862,105.4,6.266,1.189,4.791,100.7126,1.118,2.365,81.4,0,109.7,13.5,1.87,67.4
"2009-10-13 00:45:00",1322296,5.418,106,6.342,1.259,5.042,100.712,1.116,2.413,81.6,0,109.7,13.5,1.87,68.0
"2009-10-13 00:45:30",1322297,5.555,106.7,6.155,1.255,5.281,100.7047,1.097,2.466,81.7,0,109.7,13.5,1.85,68.7
"2009-10-13 00:46:00",1322298,5.795,109.9,5.773,1.126,6.31,100.6843,1.045,2.445,81.9,0,109.6,13.5,1.80,71.9
"2009-10-13 00:46:30",1322299,6.334,114.8,3.605,0.76,6.962,100.6787,1.031,2.509,82,0,109.7,13.5,1.79,76.8
"2009-10-13 00:47:00",1322300,5.141,110.6,6.046,1.206,4.555,100.6792,1.032,2.427,82.1,0,109.6,13.5,1.79,72.6
"2009-10-13 00:47:30",1322301,5.982,113.3,6.486,1.152,5.465,100.6801,1.035,2.377,82.1,0,109.6,13.5,1.79,75.3
"2009-10-13 00:48:00",1322302,5.833,113.2,5.808,1.124,5.368,100.6809,1.037,2.311,82.2,0,109.6,13.5,1.79,75.2
"2009-10-13 00:48:30",1322303,5.933,113.1,5.453,1.079,6.159,100.6745,1.02,2.399,82.4,0,109.6,13.5,1.78,75.1
"2009-10-13 00:49:00",1322304,5.614,111.4,6.293,1.212,5.84,100.6598,0.983,2.394,82.5,0,109.7,13.51,1.74,73.4
"2009-10-13 00:49:30",1322305,6.53,116.3,3.64,0.676,6.63,100.6627,0.99,2.44,82.7,0,109.7,13.51,1.75,78.3
"2009-10-13 00:50:00",1322306,5.925,114.7,6.652,1.184,5.353,100.6683,1.005,2.275,82.5,0,109.7,13.51,1.76,76.7
"2009-10-13 00:50:30",1322307,5.747,111.9,6.48,1.204,4.517,100.6695,1.008,2.329,82.7,0,109.7,13.51,1.76,73.9
"2009-10-13 00:51:00",1322308,5.715,115.2,6.396,1.151,5.238,100.6692,1.007,2.21,82.6,0,109.6,13.51,1.76,77.2
"2009-10-13 00:51:30",1322309,6.095,121.7,5.851,1.001,6.25,100.6616,0.988,2.349,82.7,0,109.6,13.51,1.74,83.7
"2009-10-13 00:52:00",1322310,5.801,121.8,6.064,1.036,6.002,100.6449,0.945,2.273,82.7,0,109.6,13.51,1.70,83.8
"2009-10-13 00:52:30",1322311,6.19,125.7,4.857,0.922,6.67,100.6432,0.941,2.305,82.9,0,109.6,13.51,1.70,87.7
"2009-10-13 00:53:00",1322312,5.265,122.9,6.349,1.192,4.249,100.6444,0.944,2.134,82.8,0,109.6,13.51,1.70,84.9
"2009-10-13 00:53:30",1322313,5.413,125.1,6.142,1.203,4.72,100.6447,0.944,2.23,82.9,0,109.6,13.52,1.70,87.1
"2009-10-13 00:54:00",1322314,5.637,126.8,6.482,1.188,4.718,100.6441,0.943,2.123,82.9,0,109.6,13.52,1.70,88.8
"2009-10-13 00:54:30",1322315,6.39,132.2,4.784,0.926,6.51,100.6333,0.915,2.243,83.1,0,109.6,13.52,1.67,94.2
"2009-10-13 00:55:00",1322316,6.082,132.1,5.624,1.136,6.413,100.6167,0.873,2.245,83.1,0,109.7,13.52,1.63,94.1
"2009-10-13 00:55:30",1322317,6.195,131.6,5.882,1.006,6.134,100.611,0.858,2.274,83.2,0,109.6,13.52,1.61,93.6
"2009-10-13 00:56:00",1322318,6.935,133.1,3.631,0.783,6.304,100.611,0.858,2.249,83.2,0,109.6,13.52,1.61,95.1
"2009-10-13 00:56:30",1322319,6.033,126.3,6.256,1.229,4.431,100.611,0.858,2.159,83.3,0,109.6,13.52,1.61,88.3
"2009-10-13 00:57:00",1322320,6.645,130,5.636,1.202,5.611,100.6065,0.847,2.14,83.3,0,109.6,13.52,1.60,92.0
"2009-10-13 00:57:30",1322321,7.395,133.4,3.396,0.611,6.894,100.5918,0.809,2.168,83.3,0,109.6,13.52,1.56,95.4
"2009-10-13 00:58:00",1322322,7.119,131.7,5.611,0.971,6.181,100.5782,0.775,2.139,83.3,0,109.6,13.53,1.53,93.7
"2009-10-13 00:58:30",1322323,7.055,132.3,5.134,1.121,5.945,100.577,0.772,2.126,83.3,0,109.6,13.53,1.53,94.3
"2009-10-13 00:59:00",1322324,7.62,134.1,3.353,0.675,6.691,100.5739,0.764,2.182,83.4,0,109.6,13.53,1.52,96.1
"2009-10-13 00:59:30",1322325,7.552,131.6,5.793,0.954,5.525,100.5539,0.713,2.106,83.3,0,109.6,13.53,1.47,93.6
"2009-10-13 01:00:00",1322326,7.447,131.6,5.192,1.137,5.216,100.5431,0.685,1.994,83.2,0,109.6,13.52,1.44,93.6
"2009-10-13 01:00:30",1322327,7.694,130.7,5.788,1.17,5.547,100.5431,0.685,2.067,83.3,0,109.6,13.52,1.44,92.7
"2009-10-13 01:01:00",1322328,8.42,134,4.729,0.417,6.722,100.5275,0.646,2.08,83.3,0,109.6,13.52,1.40,96.0
"2009-10-13 01:01:30",1322329,8.27,135.8,2.847,0.728,6.752,100.5097,0.6,2.039,83.3,0,109.6,13.52,1.35,97.8
"2009-10-13 01:02:00",1322330,7.911,132.3,5.436,1.086,5.503,100.5063,0.592,1.988,83.3,0,109.6,13.52,1.35,94.3
"2009-10-13 01:02:30",1322331,8.43,134.9,3.922,0.527,6.86,100.4797,0.524,2.02,83.4,0,109.6,13.52,1.28,96.9
"2009-10-13 01:03:00",1322332,8.18,136.1,3.527,0.771,6.345,100.4789,0.522,1.994,83.4,0,109.6,13.52,1.28,98.1
"2009-10-13 01:03:30",1322333,7.58,135.2,5.189,1.14,5.356,100.4724,0.505,1.919,83.5,0,109.6,13.52,1.26,97.2
"2009-10-13 01:04:00",1322334,7.756,137.7,4.062,0.906,6.04,100.4506,0.449,1.862,83.5,0,109.6,13.52,1.20,99.7
"2009-10-13 01:04:30",1322335,7.488,135.5,5.699,1.038,5.711,100.4535,0.457,1.763,83.6,0,109.6,13.52,1.21,97.5
"2009-10-13 01:05:00",1322336,6.832,132.2,6.265,1.17,5.161,100.4515,0.452,1.825,83.8,0,109.6,13.52,1.21,94.2
"2009-10-13 01:05:30",1322337,7.056,134.8,5.67,1.084,5.755,100.4368,0.414,1.824,83.9,0,109.6,13.53,1.17,96.8
"2009-10-13 01:06:00",1322338,7.689,136.4,2.902,0.741,6.608,100.4261,0.387,1.863,84.1,0,109.6,13.53,1.14,98.4
"2009-10-13 01:06:30",1322339,7.535,135.6,3.479,0.76,6.827,100.4241,0.382,1.822,84.2,0,109.6,13.53,1.14,97.6
"2009-10-13 01:07:00",1322340,7.673,136.8,2.847,0.742,6.758,100.4252,0.385,1.803,84.3,0,109.6,13.53,1.14,98.8
"2009-10-13 01:07:30",1322341,7.72,134.7,5.147,0.81,6.177,100.4227,0.378,1.711,84.4,0,109.6,13.53,1.13,96.7
"2009-10-13 01:08:00",1322342,7.272,130,5.86,1.197,4.387,100.4131,0.354,1.668,84.4,0,109.6,13.53,1.11,92.0
"2009-10-13 01:08:30",1322343,7.361,127.8,6.073,1.227,4.386,100.4012,0.323,1.669,84.5,0,109.6,13.53,1.08,89.8
"2009-10-13 01:09:00",1322344,8.69,130,4.395,0.517,6.056,100.4004,0.321,1.745,84.7,0,109.6,13.53,1.07,92.0
"2009-10-13 01:09:30",1322345,8.75,128.2,3.164,0.658,6.035,100.3871,0.287,1.711,84.7,0,109.6,13.53,1.04,90.2
"2009-10-13 01:10:00",1322346,8.55,126.5,3.521,0.762,6.059,100.3664,0.235,1.683,84.7,0,109.6,13.53,0.99,88.5
"2009-10-13 01:10:30",1322347,8.6,125,3.45,0.664,5.665,100.3548,0.205,1.656,84.7,0,109.6,13.53,0.96,87.0
"2009-10-13 01:11:00",1322348,8.69,126.7,3.355,0.552,5.74,100.3305,0.143,1.611,84.7,0,109.6,13.53,0.90,88.7
"2009-10-13 01:11:30",1322349,8.68,126.4,3.361,0.632,5.477,100.3056,0.08,1.593,84.7,0,109.5,13.53,0.83,88.4
"2009-10-13 01:12:00",1322350,8.51,124.4,3.417,0.662,5.188,100.2934,0.049,1.538,84.7,0,109.6,13.53,0.80,86.4
"2009-10-13 01:12:30",1322351,8.5,127,3.548,0.652,5.196,100.2694,-0.013,1.513,84.8,0,109.6,13.54,0.74,89.0
"2009-10-13 01:13:00",1322352,8.5,128.8,3.512,0.664,5.164,100.2462,-0.072,1.444,84.8,0,109.6,13.54,0.68,90.8
"2009-10-13 01:13:30",1322353,8.45,125,3.703,0.517,4.92,100.2343,-0.102,1.404,84.9,0,109.6,13.54,0.65,87.0
"2009-10-13 01:14:00",1322354,8.23,123.7,3.456,0.684,4.738,100.2074,-0.171,1.366,85,0,109.6,13.54,0.58,85.7
"2009-10-13 01:14:30",1322355,8.29,126.6,2.318,0.741,4.808,100.1918,-0.21,1.338,85.2,0,109.6,13.54,0.54,88.6
"2009-10-13 01:15:00",1322356,8.39,128.1,3.478,0.655,4.772,100.1695,-0.267,1.267,85.3,0,109.6,13.54,0.48,90.1
"2009-10-13 01:15:30",1322357,8.5,124.8,3.494,0.49,4.682,100.1463,-0.327,1.244,85.4,0,109.5,13.54,0.42,86.8
"2009-10-13 01:16:00",1322358,8.19,123.2,2.662,0.803,4.383,100.1353,-0.355,1.211,85.6,0,109.6,13.54,0.40,85.2
"2009-10-13 01:16:30",1322359,8.34,119.8,3.393,0.85,4.276,100.1098,-0.42,1.166,85.7,0,109.5,13.54,0.33,81.8
"2009-10-13 01:17:00",1322360,8.32,117.9,3.053,0.845,4.169,100.0999,-0.445,1.122,85.8,0,109.5,13.54,0.31,79.9
"2009-10-13 01:17:30",1322361,8.22,119.3,2.835,0.725,4.395,100.0764,-0.505,1.057,85.9,0,109.5,13.54,0.25,81.3
"2009-10-13 01:18:00",1322362,8.19,120.2,2.26,0.753,4.266,100.0622,-0.541,1.019,86,0,109.5,13.54,0.21,82.2
"2009-10-13 01:18:30",1322363,8.28,116.5,2.974,0.743,4.104,100.0359,-0.608,0.998,86.1,0,109.5,13.54,0.14,78.5
"2009-10-13 01:19:00",1322364,8.09,117.1,3.18,0.785,4.056,100.0215,-0.645,0.93,86.2,0,109.5,13.54,0.10,79.1
"2009-10-13 01:19:30",1322365,8.2,116.3,3.917,0.49,4.376,100.0008,-0.697,0.892,86.4,0,109.5,13.54,0.05,78.3
"2009-10-13 01:20:00",1322366,8.09,113.2,3.625,0.644,4.28,99.97623,-0.76,0.859,86.5,0,109.5,13.55,-0.01,75.2
"2009-10-13 01:20:30",1322367,7.972,114.2,3.79,0.65,4.223,99.96406,-0.791,0.792,86.7,0,109.5,13.55,-0.04,76.2
"2009-10-13 01:21:00",1322368,7.438,112.8,5.52,1.042,3.262,99.93859,-0.856,0.729,86.7,0,109.5,13.55,-0.11,74.8
"2009-10-13 01:21:30",1322369,7.415,115.1,4.443,1.115,3.304,99.92982,-0.878,0.643,86.8,0,109.5,13.55,-0.13,77.1
"2009-10-13 01:22:00",1322370,6.978,113.7,6.023,1.211,2.26,99.90774,-0.935,0.5,86.9,0,109.5,13.55,-0.19,75.7
"2009-10-13 01:22:30",1322371,7.629,116.8,5.322,1.033,3.498,99.89954,-0.956,0.558,87.2,0,109.5,13.55,-0.21,78.8
"2009-10-13 01:23:00",1322372,7.918,122.8,4.777,1.009,4.542,99.88113,-1.003,0.577,87.4,0,109.5,13.55,-0.25,84.8
"2009-10-13 01:23:30",1322373,8.32,128,4.057,0.728,5.232,99.8817,-1.001,0.556,87.6,0,109.5,13.56,-0.25,90.0
"2009-10-13 01:24:00",1322374,8.47,129.5,3.3,0.641,5.32,99.87065,-1.029,0.558,87.8,0,109.5,13.56,-0.28,91.5
"2009-10-13 01:24:30",1322375,8.51,128.7,4.468,0.619,5.187,99.85706,-1.064,0.486,88,0,109.5,13.56,-0.32,90.7
"2009-10-13 01:25:00",1322376,8.48,128.6,3.287,0.632,5.032,99.85847,-1.06,0.461,88.2,0,109.5,13.56,-0.31,90.6
"2009-10-13 01:25:30",1322377,8.5,130.9,2.707,0.621,5.038,99.86102,-1.054,0.413,88.5,0,109.5,13.56,-0.31,92.9
"2009-10-13 01:26:00",1322378,8.57,132.6,3.756,0.626,4.995,99.86186,-1.052,0.393,88.7,0,109.5,13.56,-0.30,94.6
"2009-10-13 01:26:30",1322379,8.57,134.3,4.372,0.417,5.076,99.85932,-1.058,0.382,88.9,0,109.5,13.56,-0.31,96.3
"2009-10-13 01:27:00",1322380,8.64,134.5,3.342,0.661,5.08,99.85677,-1.065,0.36,89.1,0,109.5,13.56,-0.32,96.5
"2009-10-13 01:27:30",1322381,8.77,135.7,2.698,0.635,5.188,99.85478,-1.07,0.34,89.3,0,109.5,13.56,-0.32,97.7
"2009-10-13 01:28:00",1322382,8.72,137.3,3.202,0.747,5.3,99.85705,-1.064,0.347,89.5,0,109.5,13.56,-0.32,99.3
"2009-10-13 01:28:30",1322383,8.65,137.7,3.039,0.739,5.321,99.86299,-1.049,0.344,89.7,0,109.5,13.56,-0.30,99.7
"2009-10-13 01:29:00",1322384,8.72,140.2,2.932,0.739,5.615,99.86413,-1.046,0.318,89.9,0,109.5,13.56,-0.30,102.2
"2009-10-13 01:29:30",1322385,8.93,141.6,2.593,0.631,5.859,99.86413,-1.046,0.332,90.1,0,109.5,13.56,-0.30,103.6
"2009-10-13 01:30:00",1322386,9.02,140.7,3.427,0.628,5.474,99.8644,-1.045,0.324,90.3,0,109.5,13.56,-0.30,102.7
"2009-10-13 01:30:30",1322387,9.07,138.7,3.285,0.662,5.5,99.8729,-1.024,0.349,90.5,0,109.5,13.56,-0.28,100.7
"2009-10-13 01:31:00",1322388,9.02,138.6,2.817,0.746,5.417,99.88422,-0.995,0.324,90.6,0,109.5,13.56,-0.25,100.6
"2009-10-13 01:31:30",1322389,9.24,136.9,4.014,0.384,5.581,99.89101,-0.977,0.35,90.7,0,109.5,13.56,-0.23,98.9
"2009-10-13 01:32:00",1322390,8.76,132.9,2.697,0.751,5.113,99.88988,-0.98,0.343,90.9,0,109.5,13.56,-0.23,94.9
"2009-10-13 01:32:30",1322391,8.66,131.9,2.946,0.756,5.08,99.88168,-1.001,0.35,90.9,0,109.5,13.56,-0.25,93.9
"2009-10-13 01:33:00",1322392,8.61,130.3,3.069,0.705,5.05,99.8695,-1.032,0.329,91,0,109.5,13.56,-0.28,92.3
"2009-10-13 01:33:30",1322393,8.56,129.4,2.107,0.626,5.068,99.86413,-1.046,0.317,91,0,109.5,13.56,-0.30,91.4
"2009-10-13 01:34:00",1322394,8.33,125.7,2.783,0.637,4.707,99.86413,-1.046,0.316,91,0,109.5,13.56,-0.30,87.7
"2009-10-13 01:34:30",1322395,8.23,125.8,2.992,0.626,4.403,99.85677,-1.065,0.305,91.1,0,109.5,13.56,-0.32,87.8
"2009-10-13 01:35:00",1322396,8.33,126.7,2.921,0.629,4.452,99.84487,-1.095,0.286,91.1,0,109.5,13.56,-0.35,88.7
"2009-10-13 01:35:30",1322397,8.35,128.1,3.278,0.488,4.438,99.83044,-1.132,0.273,91.1,0,109.5,13.56,-0.38,90.1
"2009-10-13 01:36:00",1322398,8.41,129.2,3.415,0.659,4.518,99.8279,-1.138,0.249,91.1,0,109.5,13.56,-0.39,91.2
"2009-10-13 01:36:30",1322399,8.45,129.2,3.34,0.656,4.574,99.81233,-1.178,0.232,91.2,0,109.5,13.56,-0.43,91.2
"2009-10-13 01:37:00",1322400,8.47,129.1,2.848,0.739,4.469,99.79818,-1.214,0.207,91.2,0,109.5,13.56,-0.47,91.1
"2009-10-13 01:37:30",1322401,8.54,130.2,2.663,0.67,4.258,99.79619,-1.219,0.182,91.2,0,109.5,13.56,-0.47,92.2
"2009-10-13 01:38:00",1322402,8.85,130.3,3.851,0.521,4.387,99.79591,-1.22,0.171,91.2,0,109.5,13.56,-0.47,92.3
"2009-10-13 01:38:30",1322403,8.84,131.1,2.896,0.634,4.261,99.76958,-1.287,0.158,91.3,0,109.5,13.56,-0.54,93.1
"2009-10-13 01:39:00",1322404,8.82,130.6,2.968,0.643,4.291,99.76222,-1.306,0.13,91.3,0,109.5,13.57,-0.56,92.6
"2009-10-13 01:39:30",1322405,8.98,132.7,2.477,0.601,4.523,99.75119,-1.334,0.103,91.3,0,109.5,13.57,-0.59,94.7
"2009-10-13 01:40:00",1322406,8.92,134,3.082,0.64,4.458,99.72911,-1.39,0.069,91.3,0,109.5,13.57,-0.64,96.0
"2009-10-13 01:40:30",1322407,9.08,134.8,3.164,0.624,4.576,99.72826,-1.392,0.07,91.4,0,109.5,13.57,-0.65,96.8
"2009-10-13 01:41:00",1322408,8.97,134.3,3.35,0.644,4.733,99.72854,-1.392,0.033,91.5,0,109.5,13.57,-0.64,96.3
"2009-10-13 01:41:30",1322409,9.05,135.2,2.533,0.669,4.872,99.72231,-1.407,0.02,91.5,0,109.5,13.57,-0.66,97.2
"2009-10-13 01:42:00",1322410,9.2,134.2,3.655,0.667,4.886,99.70928,-1.441,-0.009,91.6,0,109.5,13.57,-0.69,96.2
"2009-10-13 01:42:30",1322411,8.93,130.4,3.358,0.681,4.723,99.69881,-1.467,-0.001,91.7,0,109.5,13.57,-0.72,92.4
"2009-10-13 01:43:00",1322412,9.06,134,2.5,0.799,4.728,99.69909,-1.467,-0.039,91.7,0,109.5,13.57,-0.72,96.0
"2009-10-13 01:43:30",1322413,9.33,134.8,2.681,0.632,4.87,99.70163,-1.46,-0.048,91.8,0,109.5,13.57,-0.71,96.8
"2009-10-13 01:44:00",1322414,9.54,135.4,4.053,0.541,5.118,99.69341,-1.481,-0.055,91.8,0,109.5,13.57,-0.73,97.4
"2009-10-13 01:44:30",1322415,9.62,138.3,2.974,0.771,5.262,99.68435,-1.504,-0.069,91.9,0,109.5,13.57,-0.76,100.3
"2009-10-13 01:45:00",1322416,9.74,139.2,3.872,0.543,5.429,99.67783,-1.521,-0.111,92,0,109.5,13.57,-0.77,101.2
"2009-10-13 01:45:30",1322417,9.85,141.7,3.403,0.499,5.729,99.68064,-1.514,-0.122,92.1,0,109.5,13.58,-0.77,103.7
"2009-10-13 01:46:00",1322418,9.44,143,2.743,0.748,5.875,99.68998,-1.49,-0.122,92.2,0,109.5,13.58,-0.74,105.0
"2009-10-13 01:46:30",1322419,9.29,143.6,3.207,0.625,5.94,99.70357,-1.455,-0.118,92.3,0,109.5,13.58,-0.71,105.6
"2009-10-13 01:47:00",1322420,9.14,145.5,3.099,0.632,6.028,99.71715,-1.421,-0.132,92.4,0,109.5,13.58,-0.67,107.5
"2009-10-13 01:47:30",1322421,8.96,146.1,2.413,0.593,6.242,99.71941,-1.415,-0.117,92.5,0,109.5,13.58,-0.67,108.1
"2009-10-13 01:48:00",1322422,8.86,145.8,3.208,0.625,6.057,99.71998,-1.413,-0.102,92.6,0,109.5,13.58,-0.67,107.8
"2009-10-13 01:48:30",1322423,8.73,145.5,2.87,0.734,6.12,99.73923,-1.364,-0.071,92.7,0,109.5,13.58,-0.62,107.5
"2009-10-13 01:49:00",1322424,8.83,144.2,3.314,0.654,6.033,99.7534,-1.328,-0.07,92.7,0,109.5,13.58,-0.58,106.2